"Pseudo-MPEC" for P12oZxN

Created 2026 Aug 16 6:35:08 UT using Find_Orb

Click here for an explanation of pseudo-MPECs

 
 Astrometry: 
     P12oZxN*0C2026 08 08.51335122 55 43.947-01 43 02.54   ~88EZ 22.27wXNEOCPF51
     P12oZxN 0C2026 08 08.52558422 55 43.538-01 42 47.94   ~88EZ 21.51wXNEOCPF51
     P12oZxN 0C2026 08 08.53765522 55 43.202-01 42 33.98   ~88EZ 22.38wXNEOCPF51
     P12oZxN 0C2026 08 08.54974022 55 42.837-01 42 20.11   ~88EZ 22.14wXNEOCPF51
     P12oZxN 0C2026 08 08.60953022 55 41.056-01 41 10.43   ~88H5 22.18GVNEOCPF52
     P12oZxN 0C2026 08 08.61033722 55 41.032-01 41 09.34   ~88H5 21.97GVNEOCPF52
     P12oZxN 7B2026 08 14.88487322 52 25.664+00 18 02.38   ~8F8Z 21.5 GXNEOCPZ84
     P12oZxN 7B2026 08 14.90900522 52 24.679+00 18 29.23   ~8F8Z 21.6 GXNEOCPZ84
     P12oZxN 7B2026 08 14.93315522 52 23.689+00 18 56.21   ~8F8Z 21.7 GXNEOCPZ84
     P12oZxN KC2026 08 16.23621522 51 31.77 +00 42 54.0    ~8G6K 21.8 GVNEOCPH21
     P12oZxN KC2026 08 16.23925722 51 31.64 +00 42 57.2    ~8G6K 21.8 GVNEOCPH21

Station data:
(F51) Pan-STARRS 1, Haleakala  (N20.707234 W156.255910)  US/Hawaii.
   Observers J. Herman, T. Lowe, P. Minguez, A. Schultz, I. Smith. Measurers
   K. Chambers, T. de Boer, J. Fairlamb, H. Gao, M. Huber, C.-C. Lin, E.
   Magnier, Y. Ramanjooloo, R. Wainscoat, R. Weryk. 1.8-m Ritchey-Chrétien +
   CCD.
(F52) Pan-STARRS 2, Haleakala  (N20.707382 W156.255910)  US/Hawaii.
   Observers J. Herman, T. Lowe, P. Minguez, A. Schultz, I. Smith. Measurers
   K. Chambers, T. de Boer, J. Fairlamb, H. Gao, M. Huber, C.-C. Lin, E.
   Magnier, Y. Ramanjooloo, R. Wainscoat, R. Weryk. 1.8-m Ritchey-Chrétien +
   CCD.
(H21) Astronomical Research Observatory, Westfield  (N39.483054 W87.968270)
   US/Illinois.  Observer R. Holmes. Measurers S. Foglia, L. Buzzi, T.
   Linder, R. Holmes. 0.40-m f/5.32 astrograph + CCD.
(Z84) Calar Alto-Schmidt  (N37.224006 W2.548160)  Spain.  Observer F. Ocaña.
   Measurers F. Ocaña, M. Micheli, R. Kresken. 0.8-m f/3 Schmidt + CCD.

Orbital elements:  P12oZxN
   Perihelion 2026 Aug 19.132006 +/- 0.474 TT =  3:10:05.3 (JD 2461271.632006)
Epoch 2026 Aug 16.0 TT = JDT 2461268.5   Earth MOID: 0.4892      AutoNEOCP
M 359.075461101 +/- 0.14            (J2000 ecliptic)
n   0.295190646 +/- 0.0022          Peri.   15.952539 +/- 0.29
a   2.233920197 +/- 0.0111          Node   316.225205 +/- 0.050
e   0.32946020 +/- 0.00228          Incl.   10.353946 +/- 0.052
P   3.33889                H 21.63  G  0.15   U  8.6
q 1.497932384 +/- 0.00245    Q 2.969908011 +/- 0.0198
From 11 observations 2026 Aug. 8-16; mean residual 0".14
Residuals in arcseconds: 
260808 F51  .17+  .12-    260808 F52  .06+  .13-    260814 Z84  .25+  .12+    
260808 F51  .41-  .23+    260808 F52  .06+  .02+    260816 H21  .09-  .04+    
260808 F51  .04+  .12+    260814 Z84  .17-  .02-    260816 H21  .06+  .10-    
260808 F51  .04+  .10-    260814 Z84  .07-  .01-    

Ephemerides (geocentric):
Date (UTC) HH   RA             Dec           delta  r     elong  mag " sig PA
---- --------  ------------   ------------  ------ ------ -----  --- --------
2026 08 16 07  22 51 29.186   +00 44 05.42  .51179 1.4981 157.4 21.9 .269  76
2026 08 16 08  22 51 27.479   +00 44 51.06  .51171 1.4981 157.4 21.9 .285  75
2026 08 16 09  22 51 25.770   +00 45 36.69  .51163 1.4981 157.5 21.9 .301  74
2026 08 16 10  22 51 24.057   +00 46 22.29  .51155 1.4981 157.5 21.9 .317  73
2026 08 16 11  22 51 22.341   +00 47 07.88  .51147 1.4981 157.5 21.9 .333  73
2026 08 16 12  22 51 20.621   +00 47 53.44  .51139 1.4981 157.6 21.9 .350  72
2026 08 16 13  22 51 18.899   +00 48 38.98  .51131 1.4981 157.6 21.9 .367  72
2026 08 16 14  22 51 17.173   +00 49 24.50  .51123 1.4981 157.6 21.9 .384  71
2026 08 16 15  22 51 15.445   +00 50 10.00  .51115 1.4981 157.7 21.9 .401  71
2026 08 16 16  22 51 13.713   +00 50 55.48  .51107 1.4981 157.7 21.9 .418  70
2026 08 16 17  22 51 11.977   +00 51 40.94  .51099 1.4981 157.7 21.9 .436  70
2026 08 16 18  22 51 10.239   +00 52 26.37  .51092 1.4981 157.8 21.9 .453  69
2026 08 16 19  22 51 08.498   +00 53 11.79  .51084 1.4981 157.8 21.9 .471  69
2026 08 16 20  22 51 06.753   +00 53 57.18  .51076 1.4980 157.9 21.9 .489  69
2026 08 16 21  22 51 05.005   +00 54 42.56  .51068 1.4980 157.9 21.9 .507  69
2026 08 16 22  22 51 03.255   +00 55 27.91  .51061 1.4980 157.9 21.9 .525  68
2026 08 16 23  22 51 01.501   +00 56 13.24  .51053 1.4980 158.0 21.9 .544  68
2026 08 17 00  22 50 59.744   +00 56 58.55  .51045 1.4980 158.0 21.9 .562  68
2026 08 17 01  22 50 57.984   +00 57 43.84  .51038 1.4980 158.0 21.9 .581  67
2026 08 17 02  22 50 56.220   +00 58 29.11  .51030 1.4980 158.1 21.9 .600  67
2026 08 17 03  22 50 54.454   +00 59 14.35  .51023 1.4980 158.1 21.9 .619  67
2026 08 17 04  22 50 52.685   +00 59 59.57  .51015 1.4980 158.1 21.9 .638  67
2026 08 17 05  22 50 50.912   +01 00 44.78  .51007 1.4980 158.2 21.9 .657  67
2026 08 17 06  22 50 49.137   +01 01 29.96  .51000 1.4980 158.2 21.9 .676  66
2026 08 17 07  22 50 47.358   +01 02 15.12  .50993 1.4980 158.2 21.9 .696  66
2026 08 17 08  22 50 45.576   +01 03 00.25  .50985 1.4980 158.3 21.9 .716  66
2026 08 17 09  22 50 43.792   +01 03 45.37  .50978 1.4980 158.3 21.9 .735  66
2026 08 17 10  22 50 42.004   +01 04 30.46  .50970 1.4980 158.3 21.9 .755  66
2026 08 17 11  22 50 40.213   +01 05 15.53  .50963 1.4980 158.4 21.9 .776  66
2026 08 17 12  22 50 38.420   +01 06 00.58  .50956 1.4980 158.4 21.9 .796  65
2026 08 17 13  22 50 36.623   +01 06 45.61  .50948 1.4980 158.4 21.9 .816  65
2026 08 17 14  22 50 34.823   +01 07 30.62  .50941 1.4980 158.5 21.9 .837  65
2026 08 17 15  22 50 33.020   +01 08 15.60  .50934 1.4980 158.5 21.9 .858  65
2026 08 17 16  22 50 31.215   +01 09 00.56  .50927 1.4980 158.5 21.9 .879  65
2026 08 17 17  22 50 29.406   +01 09 45.50  .50920 1.4980 158.6 21.9 .900  65
2026 08 17 18  22 50 27.594   +01 10 30.41  .50913 1.4980 158.6 21.9 .921  65
2026 08 17 19  22 50 25.780   +01 11 15.31  .50905 1.4980 158.6 21.9 .942  64
2026 08 17 20  22 50 23.962   +01 12 00.18  .50898 1.4980 158.7 21.9 .963  64
2026 08 17 21  22 50 22.142   +01 12 45.03  .50891 1.4980 158.7 21.9 .985  64
2026 08 17 22  22 50 20.318   +01 13 29.86  .50884 1.4980 158.7 21.8 1.01  64
2026 08 17 23  22 50 18.492   +01 14 14.66  .50877 1.4980 158.8 21.8 1.03  64
2026 08 18 00  22 50 16.662   +01 14 59.44  .50870 1.4980 158.8 21.8 1.05  64
2026 08 18 01  22 50 14.830   +01 15 44.20  .50863 1.4980 158.8 21.8 1.07  64
2026 08 18 02  22 50 12.995   +01 16 28.94  .50856 1.4980 158.9 21.8 1.09  64
2026 08 18 03  22 50 11.157   +01 17 13.65  .50850 1.4980 158.9 21.8 1.12  64
2026 08 18 04  22 50 09.316   +01 17 58.34  .50843 1.4980 158.9 21.8 1.14  63
2026 08 18 05  22 50 07.472   +01 18 43.01  .50836 1.4980 159.0 21.8 1.16  63
2026 08 18 06  22 50 05.626   +01 19 27.65  .50829 1.4979 159.0 21.8 1.19  63